Regional Weather Roundup
Issued by NWS State College, PA

Home | Current Version | Previous Version | Text Only | Print | Product List | Glossary Off
Versions: 1 2 3 4 5 6 7 8 9 10 11 12 13 14 15 16 17 18 19 20 21 22 23 24 25 26 27 28 29 30 31 32 33 34 35 36 37 38 39 40 41 42 43 44 45 46 47 48 49 50

000
ASUS41 KCTP 210503
RWRCTP

REGIONAL WEATHER ROUNDUP
NATIONAL WEATHER SERVICE STATE COLLEGE PA
1200 AM EST TUE FEB 21 2017

Note: "fair" indicates few or no clouds below 12,000 feet with no
significant weather and/or obstructions to visibility.

* = STATION THAT DOES NOT REPORT PRECIPITATION /E.G. RAIN...SNOW...ETC/
    THUNDER OR FOG.

PAZ002>004-007>009-013>016-020>023-029>032-210600-
WESTERN PENNSYLVANIA

CITY           SKY/WX    TMP DP  RH WIND       PRES   REMARKS
ERIE           CLOUDY    41  28  60 CALM      30.16F
MEADVILLE      CLOUDY    46  28  49 VRB3      30.15F
FRANKLIN*      CLOUDY    45  27  49 SE10      30.18F
NEW CASTLE     FAIR      46  29  51 CALM      30.15F
BEAVER COUNTY  NOT AVBL
BUTLER*        CLOUDY    48  30  49 E9        30.16F
PITTSBURGH INT CLOUDY    48  31  51 SE5       30.15F
PITTSBURGH     PTCLDY    49  27  42 E8        30.15F
INDIANA*       CLEAR     46  30  53 E8        30.22F
LATROBE        PTCLDY    52  28  40 E13G18    30.18F
WASHINGTON CO* CLOUDY    37  34  87 CALM      30.16F
$$

PAZ004>006-010>012-017>019-024>028-033>037-041-042-045-046-049>053-210600-
CENTRAL PENNSYLVANIA

CITY           SKY/WX    TMP DP  RH WIND       PRES   REMARKS
BRADFORD       CLOUDY    34  20  56 SE8       30.20F
DUBOIS         PTCLDY    40  22  48 E10       30.19F
CLEARFIELD       N/A    N/A N/A N/A MISG      30.24F
JOHNSTOWN      PTCLDY    44  28  53 E6        30.20F
ALTOONA        CLOUDY    43  27  53 E5        30.26S
STATE COLLEGE  PTCLDY    36  23  59 NE8       30.27F
WILLIAMSPORT   MOCLDY    35  18  49 N3        30.34S
SELINSGROVE    PTCLDY    35  20  54 N5        30.34S
FT INDIANTOWN  CLOUDY    36  18  47 NE3       30.34R
CAPITAL CITY   CLOUDY    43  18  36 E6        30.34R
HARRISBURG     CLOUDY    40  17  39 E8        30.33R
YORK           CLOUDY    31  26  82 CALM      30.32S
$$

PAZ038>040-043-044-047-048-054-055-060>062-067>071-210600-
EASTERN PENNSYLVANIA

CITY           SKY/WX    TMP DP  RH WIND       PRES   REMARKS
SCRANTON       CLOUDY    32  16  51 E5        30.33S
MOUNT POCONO   CLOUDY    28  14  55 E6        30.30R
ALLENTOWN      PTCLDY    32  15  49 NE7       30.35F
QUAKERTOWN*    CLOUDY    32  14  47 CALM      30.35S
READING        CLOUDY    38  15  39 N5        30.34S
LANCASTER      CLOUDY    37  17  44 E6        30.34R
COATESVILLE    CLOUDY    39  12  33 CALM      30.34S
POTTSTOWN      PTCLDY    36  12  37 E3        30.36S
BLUE BELL      PTCLDY    36  14  41 CALM      30.34S
DOYLESTOWN     CLOUDY    37  13  37 NE3       30.34S
WILLOW GROVE   NOT AVBL
NORTH PHILA    PTCLDY    37  15  40 NE6       30.37S
PHILADELPHIA   PTCLDY    41  14  33 NE8       30.35S
$$




USA.gov is the U.S. government's official web portal to all federal, state and local government web resources and services.